Regional Weather Roundup
Issued by NWS

Home | Current Version | Previous Version | Text Only | Print | Product List | Glossary On
Versions: 1 2 3 4 5 6 7 8 9 10 11 12 13 14 15 16 17 18 19 20 21 22 23 24 25 26 27 28 29 30 31 32 33 34 35 36 37 38 39 40 41 42 43 44 45 46 47 48 49 50
000
ASCA44 KEWX 271920
RWRMX

LATIN AMERICA AND CARIBBEAN REGIONAL WEATHER ROUNDUP
NATIONAL WEATHER SERVICE AUSTIN/SAN ANTONIO TX
200 PM CDT SAT MAY 27 2017

NOTE: "FAIR" INDICATED FEW OR NO CLOUDS BELOW 12,000 FEET WITH NO
SIGNIFICANT WEATHER AND/OR OBSTRUCTIONS TO VISIBILITY.

BAJA CALIFORNIA

CITY           SKY/WX    TMP DP  RH WIND       PRES   REMARKS
LORETO         SUNNY     88  75  66 CALM      29.89F HX  97
LA PAZ         SUNNY     88  48  25 N10       29.93S
MEXICALI       SUNNY     86  48  26 CALM      29.92S
S.J. DEL CABO  SUNNY     88  48  25 SE12      29.92S
TIJUANA        MOSUNNY   68  50  52 W8        30.08S

NORTHWESTERN MEXICO

CITY           SKY/WX    TMP DP  RH WIND       PRES   REMARKS
CULIACAN       SUNNY     93  57  29 SE7       29.90F HX  92
DURANGO        MOSUNNY   88  28  11 CALM      30.21F
GUAYMAS        SUNNY     88  66  48 SW12      29.88F HX  90
HERMOSILLO     SUNNY     95  43  16 W14       29.95S HX  91
CD. JUAREZ     SUNNY     88  48  25 W23       29.97F
LOS MOCHIS     SUNNY     90  52  27 SW12      29.93F
OBREGON        SUNNY     93  50  22 S5        29.90F HX  90

NORTHEASTERN MEXICO

CITY           SKY/WX    TMP DP  RH WIND       PRES   REMARKS
CHIHUAHUA      MOSUNNY   90  37  15 CALM      30.13S
MATAMOROS      MOSUNNY   93  75  55 SE17      29.87F HX 104
MONCLOVA       MOSUNNY   99  66  34 N8        29.84F HX 102
MONTERREY      PTSUNNY   91  66  43 E9        29.85F HX  94
NUEVO LAREDO   PTSUNNY   93  73  52 SE16      29.82F HX 102
PIEDRAS NEGRAS PTSUNNY   91  77  62 E6        29.87F HX 105
REYNOSA        PTSUNNY   93  70  46 SE9G21    29.83F HX  99
SALTILLO       MOSUNNY   99  57  25 N8        30.13F HX  97
TORREON        SUNNY     97  43  15 NW5       30.01F HX  92
CD. VICTORIA   MOSUNNY   95  70  43 SE13G26   29.84F HX 101

WESTERN MEXICO

CITY           SKY/WX    TMP DP  RH WIND       PRES   REMARKS
AGUASCALIENTES SUNNY     86  28  12 NW5       30.23F
COLIMA         MOSUNNY   90  64  43 S7        29.99F HX  91
DEL BAJIO      PTSUNNY   88  46  23 SW9       30.26F
GUADALAJARA    MOSUNNY   86  50  28 SE6       30.16F
MANZANILLO     MOSUNNY   82  75  78 W12       29.86F
MAZATLAN       SUNNY     86  68  54 SW8       29.91F
P. VALLARTA    SUNNY     82  75  78 SW15      29.89F
URUAPAN        SUNNY     79  59  50 S12       30.17F
ZACATECAS      SUNNY     82  41  23 CALM      30.29S

CENTRAL MEXICO

CITY           SKY/WX    TMP DP  RH WIND       PRES   REMARKS
CUERNAVACA     PTSUNNY   81  63  54 SE13      30.13F
MEXICO CITY    PTSUNNY   77  41  27 NE5       30.32F
MORELIA        MOSUNNY   84  50  30 NE3       30.22F
POZA RICA      MOSUNNY   97  79  56 CALM      29.90F HX 115
PUEBLA         MOSUNNY   79  43  27 NW2       30.33F
QUERETARO      PTSUNNY   82  43  24 SE12      30.27F
S. LUIS POTOSI SUNNY     88  30  12 NE7       30.21F
TAMPICO        MOSUNNY   90  77  66 E14       29.86F HX 102
TOLUCA         PTSUNNY   72  46  40 SW3       30.40F

SOUTHERN MEXICO

CITY           SKY/WX    TMP DP  RH WIND       PRES   REMARKS
ACAPULCO       MOSUNNY   88  77  70 SW9       29.86F HX 100
B. DE HUATULCO MOSUNNY  N/A N/A N/A MISG      29.94F
OAXACA         RAIN      72  59  64 E23       30.19F
P. ESCONDIDO   PTSUNNY   86  77  74 CALM      29.96F HX  97
VERACRUZ       MOSUNNY   91  79  66 NE16      29.85F HX 107
ZIHUATANEJO    MOSUNNY   91  75  59 SW8       29.87F HX 102

YUCATAN PENINSULA

CITY           SKY/WX    TMP DP  RH WIND       PRES   REMARKS
CAMPECHE       PTSUNNY   97  75  49 SE12G23   29.86F HX 109
CANCUN         PTSUNNY   88  73  62 SE18      30.02F HX  96
CHETUMAL       CLOUDY    90  77  66 SE22      29.95S HX 102
CD. DEL CARMEN PTSUNNY   95  73  49 E6        29.87F HX 105
COZUMEL        CLOUDY    88  75  66 SE12      30.00F HX  97
MERIDA         PTSUNNY   99  73  44 E16       29.92F HX 109
MINATITLAN     PTSUNNY   95  70  43 E12       29.84F HX 101
TAPACHULA      PTSUNNY   90  75  62 CALM      29.89F HX 100
TUX. GUTIERREZ PTSUNNY   84  68  58 E7        29.95F
VILLAHERMOSA   MOSUNNY   95  73  49 E5        29.86F HX 105

CENTRAL AMERICA

CITY           SKY/WX    TMP DP  RH WIND       PRES   REMARKS
BELIZE CITY    PTSUNNY   90  79  70 E12G23    29.91F HX 105
MANAGUA        PTCLDY    91  75  59 SE12      29.83F HX 102

CARIBBEAN

CITY           SKY/WX    TMP DP  RH WIND       PRES   REMARKS
ARUBA          MOSUNNY   88  77  70 E22       29.89F HX 100
KINGSTON       MOSUNNY   88  75  66 SE20      29.97S HX  97
NASSAU         TSTM      82  75  78 E14       30.08
SAN JUAN       MOSUNNY   88  73  62 E22       30.02F HX  96
SANTO DOMINGO  PTSUNNY   88  75  66 S7        29.97F HX  97
ST. CROIX      MOSUNNY   86  73  66 SE14      30.02  HX  93
ST. KITTS      MOSUNNY   84  73  70 NE10      30.00S HX  91
ST. MAARTEN    MOSUNNY   86  72  62 E7        30.00S HX  92
ST. THOMAS     MOSUNNY   88  73  62 SE14      30.01  HX  96

$$




USA.gov is the U.S. government's official web portal to all federal, state and local government web resources and services.